Regional Weather Roundup
Issued by NWS

Home | Current Version | Previous Version | Text Only | Print | Product List | Glossary Off
Versions: 1 2 3 4 5 6 7 8 9 10 11 12 13 14 15 16 17 18 19 20 21 22 23 24 25 26 27 28 29 30 31 32 33 34 35 36 37 38 39 40 41 42 43 44 45 46 47 48 49 50

000
ASUS43 KLOT 170508
RWRIL

ILLINOIS REGIONAL WEATHER ROUNDUP
NATIONAL WEATHER SERVICE CHICAGO/ROMEOVILLE IL
1100 PM CST MON JAN 16 2017

NOTE: "FAIR" INDICATES FEW OR NO CLOUDS BELOW 12,000 FEET WITH NO
SIGNIFICANT WEATHER AND/OR OBSTRUCTIONS TO VISIBILITY.

* THESE STATIONS ARE NOT UNDER NWS QUALITY CONTROL. THEY ALSO MAY NOT
  REPORT WEATHER SUCH AS PRECIPITATION OR FOG.

ILZ001-002-007-009-015-016-024-170600-
NORTHWEST ILLINOIS

CITY           SKY/WX    TMP DP  RH WIND       PRES   REMARKS
MOLINE         MIX PCPN  37  35  92 CALM      29.81F VSB 1
STERLING*      MIX PCPN  36  36 100 E8        29.81F VSB 3/4 WCI  30
SAVANNA*       LGT RAIN  36  36  99 CALM      29.84F
$$

ILZ003-004-008-010-011-017-018-170600-
NORTH CENTRAL ILLINOIS

CITY           SKY/WX    TMP DP  RH WIND       PRES   REMARKS
ROCKFORD       CLOUDY    37  35  92 E8        29.85F FOG     WCI  31
FREEPORT*      FOG       34  34  99 NE6       29.85F VSB 3/4 WCI  29
ROCHELLE*      DRZL/FOG  36  36 100 E10       29.83F VSB 1/2 WCI  29
DE KALB*       FOG       36  36  99 E9        29.85F VSB 1   WCI  29
$$

ILZ005-006-012>014-019>023-170600-
NORTHEAST ILLINOIS

CITY           SKY/WX    TMP DP  RH WIND       PRES   REMARKS
CHICAGO-OHARE  DRIZZLE   37  36  96 NE8       29.86F FOG     WCI  31
CHICAGO-MIDWAY FOG       37  37 100 NE6       29.86F VSB 1   WCI  32
AURORA         FOG       38  36  92 NE9       29.85F VSB 3/4 WCI  31
LANSING*       CLOUDY    42  42 100 SE8       29.86F
JOLIET*        CLOUDY    42  42 100 CALM      29.85F FOG
WAUKEGAN       FOG       37  36  96 E10       29.88F VSB 1   WCI  30
DUPAGE AIRPORT MIX PCPN  37  35  92 NE7       29.86F VSB 3/4 WCI  32
KANKAKEE*      FOG       41  40  97 CALM      29.85F VSB 1/2
WHEELING       CLOUDY    37  36  96 NE6       29.89F FOG     WCI  32
MORRIS*        FOG       37  36  99 NE3       29.83F VSB 1/4
ROMEOVILLE*    FOG       42  42 100 CALM      29.84F VSB 3/4
NORTHERLY ISL    N/A     35  34  96 N1          N/A
$$

LMZ740>746-170600-
SOUTHERN LAKE MICHIGAN

STATION/POSITION SKY/WX   TEMP    WIND        PRES    VSBY  WAVE
                          AIR SEA DIR/SP/G                  HT/PER
                          (F)     (DEG/KT/KT) (MB)    (MI)  (FT/S)
HARRISON CRIB              36      70/  4/  5   N/A
BURNHAM HARBOR             35      40/  1/  3   N/A
CALUMET HARBOR             38      90/  5/  6 1011.2F
BURNS HARBOR               44     140/ 13/ 18 1012.5F
MICHIGAN CITY              42     110/ 14/ 18   N/A
$$

ILZ025>027-034>036-040-047-049-050-058-095>099-170600-
WEST-CENTRAL ILLINOIS

CITY           SKY/WX    TMP DP  RH WIND       PRES   REMARKS
QUINCY         LGT RAIN  47  46  97 W7        29.83R FOG
GALESBURG*     RAIN      41  41 100 NW3       29.81S
MACOMB*        MIX PCPN  40  40 100 NW7       29.83F
JACKSONVILLE*  LGT RAIN  53  53  99 S9        29.80S
PITTSFIELD*    CLOUDY    52  52 100 W13       29.83R
$$

ILZ028>032-037-038-041>044-048-051>054-059>061-170600-
CENTRAL ILLINOIS

CITY           SKY/WX    TMP DP  RH WIND       PRES   REMARKS
PONTIAC        FOG       41  41 100 E7        29.82F VSB 1/4
BLOOMINGTON    LGT RAIN  49  48  97 S14       29.80F VSB 1/2
DECATUR        CLOUDY    54  54 100 S14       29.82F
PEORIA         HVY RAIN  48  48 100 SW8       29.79F FOG
LACON*         RAIN      38  38 100 NE3       29.76F VSB 1/2
LINCOLN*       FOG       50  50 100 S7        29.79F VSB 1/2
SPRINGFIELD    CLOUDY    54  53  97 S13       29.81F FOG
TAYLORVILLE    CLOUDY    53  53  99 S12       29.82F FOG
$$

ILZ033-039-045-046-055>057-062-063-170600-
EAST-CENTRAL ILLINOIS

CITY           SKY/WX    TMP DP  RH WIND       PRES   REMARKS
CHAMPAIGN      CLOUDY    53  52  96 SE15      29.85F
RANTOUL*       FOG       52  52  99 S12       29.85F VSB 1/2
MATTOON        CLOUDY    54  53  97 S12       29.85F
PARIS*         CLOUDY    54  54 100 SE13      29.89F
$$

ILZ079-100>102-170600-
SOUTHWEST ILLINOIS

CITY           SKY/WX    TMP DP  RH WIND       PRES   REMARKS
ALTON          CLOUDY    54  54  99 S10       29.84S FOG
BELLEVILLE     CLOUDY    55  55 100 S7        29.84S
CAHOKIA*       FOG       48  45  89 S3        29.84F VSB 1/4
SPARTA*        MOCLDY    59  58  96 S10       29.88S
$$

ILZ064>066-069>071-074>076-080>082-084>086-088>090-092>094-170600-
SOUTH-CENTRAL ILLINOIS

CITY           SKY/WX    TMP DP  RH WIND       PRES   REMARKS
CARBONDALE     MOCLDY    60  59  96 S16G24    29.89F
CAIRO*         CLOUDY    58  58  98 S8        29.93F
EFFINGHAM*     CLOUDY    57  57 100 SE9G16    29.88F
MARION         CLOUDY    61  61 100 S12       29.92F
MT. VERNON     CLOUDY    60  58  92 S14       29.87F
CENTRALIA*     MOCLDY    59  58  98 S10       29.85F
SALEM*         CLOUDY    59  57  92 S7        29.86F
METROPOLIS*    RAIN      60  58  94 CALM      29.96R
$$

ILZ067-068-072-073-078-083-087-091-170600-
SOUTHEAST ILLINOIS

CITY           SKY/WX    TMP DP  RH WIND       PRES   REMARKS
LAWRENCEVILLE  CLOUDY    57  56  96 S12       29.92F
FLORA*         CLOUDY    57  56  94 S10       29.88F
FAIRFIELD*     MOCLDY    57  56  97 S6        29.89F
HARRISBURG*    CLOUDY    61  59  92 S8        29.93S
ROBINSON*      CLOUDY    55  54  95 S12       29.92F
CARMI*         MOCLDY    56  56  98 S10       29.93S
$$

ABBREVIATIONS USED IN REMARKS
   TC - TEMPERATURE IN CELSIUS
  WCI - WIND CHILL INDEX
   HX - HEAT INDEX
  VSB - VISIBILITY
$$





USA.gov is the U.S. government's official web portal to all federal, state and local government web resources and services.